星链-3290 (STARLINK-3290 )

导读

STARLINK-3290是美国太空探索技术公司(SpaceX)研发运营的星链(Starlink)低轨互联网卫星,属于Starlink v1.5平台,于北京时间2022年1月6日发射升空,目前仍在轨正常运行。 该卫星运行在倾角53.157°近地轨道,近地点约477公里,远地点约478公里,轨道周期约94.16分钟,是星链全球卫星互联网组网的组成部分,可提供低延迟宽带互联网接入服务。

基本信息
目录编号:
50828
目录名称:
STARLINK-3290
国际标识:
2022-001AB
轨道中心:
EARTH
卫星名称:
星链-3290
卫星全名:
星链-3290 (STARLINK-3290 )
卫星状态:
在轨 (已飞行1627 天)
发射日期:
2022-01-06 UTC
国别 :
美国 (US)
星等 :
--
轨道信息
数据来源 国际轨道数据 AOE轨道数据
星历时间 2026-06-20T17:59:25+0800
1天前
查看轨道信息
2026-06-20T00:00:00+0800
1天前
查看轨道信息
半长轴 6917.904km 6917.849km
偏心率 0.000116 0.0001255
轨道倾角 53.160° 53.159°
近地点辐角 83.915° 75.311°
升交点赤经 67.740° 71.111°
平近点角 276.198° 170.962°
近地点 538.964km 538.843km
远地点 540.57km 540.581km
周期 95.438分钟 95.437分钟
每日圈数 15.088326 15.088503
详细信息
固有亮度:
5
最大亮度:
2.5
卫星平台:
Starlink v1.5
覆盖范围:
全球
运营商:
太空探索技术公司
运营商所在国:
美国
制造商(研发单位):
太空探索技术公司
制造商所在国:
美国
使用方式:
暂无
卫星简介
星链(Starlink)计划是由太空探索技术公司(SpaceX)提出的一个巨型低轨卫星互联网星座项目,计划在2019年至2024年间在太空搭建由约1.2万颗卫星组成的“星链”网络,其中1584颗将部署在地球上空550千米处的近地轨道,并从2020年开始工作。该卫星仍在工作。
2D轨道图
3D轨道图
轨道高度分析图
轨道倾角分析图
轨道综合分析图
查看轨道综合分析图